Tracking 19177 objects as of 24-May-2018
HD Live streaming from Space Station
objects crossing your sky now

APSTAR 6

Track APSTAR 6 now!
APSTAR 6 is classified as:


NORAD ID: 28638
Int'l Code: 2005-012A
Perigee: 35,786.9 km
Apogee: 35,800.9 km
Inclination: 0.0 °
Period: 1,436.1 minutes
Semi major axis: 42164 km
RCS: 31.6227 m2 (large)
Launch date: April 12, 2005
Source: People's Republic of China (PRC)
Launch site: Xichang Space Center, China (XSC)
aabbcc
Your satellite tracking list
Your tracking list is empty




NASA's NSSDC Master Catalog

Two Line Element Set (TLE):
1 28638U 05012A   18144.23802693 -.00000335  00000-0  00000+0 0  9997
2 28638   0.0428  99.1276 0001660 320.4930  41.8670  1.00271170 72870
Source of the keplerian elements: AFSPC